Location: Santiago
(33.4378°S, 70.6505°W)
Time: 22:06:18
(UTC+00:00)

ISS - Pass Details

Date: 25 November 2023
Orbit: 415 x 417 km, 51.6° (Epoch: 04 December)

Event Time Altitude Azimuth Distance (km) Brightness Sun altitude
Exits shadow 08:40:21 - 257° (WSW) 1,859 -0.9 -9.4°
Reaches altitude 10° 08:41:43 10° 241° (WSW) 1,513 -1.2 -9.1°
Maximum altitude 08:43:29 13° 209° (SSW) 1,326 -1.2 -8.8°
Drops below altitude 10° 08:45:14 10° 178° (S) 1,519 -0.4 -8.5°
Sets 08:48:14 0° 150° (SSE) 2,389 1.3 -8.0°
